Tracking 23764 objects as of 17-Oct-2021
HD Live streaming from Space Station
objects crossing your sky now

TOPEX/POSEIDON

Track TOPEX/POSEIDON now!
10-day predictions
TOPEX/POSEIDON is classified as:


NORAD ID: 22076
Int'l Code: 1992-052A
Perigee: 1,338.3 km
Apogee: 1,350.6 km
Inclination: 66.0 °
Period: 112.4 minutes
Semi major axis: 7715 km
RCS: 8.6832 m2 (large)
Launch date: August 10, 1992
Source: United States (US)
Launch site: FRENCH GUIANA (FRGUI)
aabbcc
Your satellite tracking list
Your tracking list is empty




NASA's NSSDC Master Catalog

Two Line Element Set (TLE):
1 22076U 92052A   21289.55265478 -.00000057  00000-0  18023-4 0  9990
2 22076  66.0403  73.6318 0007974 270.0507 163.2550 12.81033927365130
Source of the keplerian elements: AFSPC